Regional Weather Roundup
Issued by NWS

Home | Current Version | Previous Version | Graphics & Text | Print | Product List | Glossary On
Versions: 1 2 3 4 5 6 7 8 9 10 11 12 13 14 15 16 17 18 19 20 21 22 23 24 25 26 27 28 29 30 31 32 33 34 35 36 37 38 39 40 41 42 43 44 45 46 47 48 49 50
000
ASUS43 KLMK 300702
RWRKY
KENTUCKY REGIONAL WEATHER ROUNDUP
NATIONAL WEATHER SERVICE LOUISVILLE KY
300 AM EDT THU JUL 30 2015

NOTE "FAIR" INDICATES FEW OR NO CLOUDS BELOW 12,000 FEET
WITH NO SIGNIFICANT WEATHER AND/OR OBSTRUCTIONS TO VISIBILITY.

KYZ001>023-026-027-061>063-070>075-300800-
WESTERN AND SOUTH CENTRAL KENTUCKY

CITY           SKY/WX    TMP DP  RH WIND       PRES   REMARKS
PADUCAH        PTCLDY    76  68  76 N8        30.06S
HENDERSON      PTCLDY    73  66  78 N6        30.04S
OWENSBORO      MOCLDY    77  67  71 N5        30.05R
HOPKINSVILLE   MOCLDY    74  73  95 NW5       30.03S
BOWLING GREEN  PTCLDY    75  72  90 CALM      30.01F
GLASGOW        NOT AVBL
$$

KYZ024-025-028>034-038-045-046-053-300800-
NORTH CENTRAL KENTUCKY

CITY           SKY/WX    TMP DP  RH WIND       PRES   REMARKS
LOUISVILLE/SDF CLOUDY    78  65  63 N16G22    30.01S
LOUISVILLE/LOU CLOUDY    78  70  76 N7        30.02S
FORT KNOX      MOCLDY    74  73  94 NW8       30.02R
$$

KYZ035>037-039>044-047>052-055>060-089>105-300800-
NORTHEAST KENTUCKY

CITY           SKY/WX    TMP DP  RH WIND       PRES   REMARKS
LEXINGTON      CLOUDY    73  71  93 W3        30.01F
COVINGTON      CLOUDY    74  64  71 NW12      30.00F
FRANKFORT      CLOUDY    73  71  93 NW5       30.00F
$$

KYZ054-064>069-076>088-106>120-300800-
SOUTHEAST KENTUCKY

CITY           SKY/WX    TMP DP  RH WIND       PRES   REMARKS
JACKSON        CLOUDY    73  69  87 CALM      30.02F
LONDON         MOCLDY    73  67  81 S3        30.03S
SOMERSET       NOT AVBL
MIDDLESBORO    PTCLDY    74  73  96 CALM      30.02F
MONTICELLO     PTSUNNY   72  72 100 CALM      30.05F
$$



USA.gov is the U.S. government's official web portal to all federal, state and local government web resources and services.